Location: Burland Observatory
(39.4088°N, 105.4217°W)
Time: 11:46:55
(UTC-07:00)

Vanguard 3 - Pass Details

Date: 11 December 2019
Orbit: 507 x 3264 km, 33.4° (Epoch: 27 January)

Event Time Altitude Azimuth Distance (km) Brightness Sun altitude
Rises 15:03:43 0° 275° (W) 6,271 12.3 13.6°
Reaches altitude 10° 15:09:05 10° 262° (W) 5,629 12.4 12.9°
Maximum altitude 15:20:46 22° 221° (SW) 5,178 13.5 11.2°
Drops below altitude 10° 15:33:34 10° 180° (S) 6,129 12.3 9.4°
Sets 15:40:00 0° 167° (SSE) 6,949 12.3 8.4°
